User: anonymous   Login
Location: Vancouver
(49.2500°N, 123.1330°W)
Time: 09:08:28
(UTC-07:00)
Language:

Iridium 35 - Orbit

View from above orbital plane
View from above orbital plane
View from above satellite
View from above satellite

Ground track
Ground track

The orbit data is extracted from the following two-line orbital elements,

1 24966U 97056B   16126.47763400  .00000034  00000-0  51287-5 0  9996
2 24966  86.3939 129.1579 0002324  88.7089 271.4373 14.34219066974094
Epoch (UTC): 05 May 2016 11:27:47
Eccentricity: 0.0002324
inclination: 86.3939°
perigee height: 776 km
apogee height: 779 km
right ascension of ascending node: 129.1579°
argument of perigee: 88.7089°
revolutions per day: 14.34219066
mean anomaly at epoch: 271.4373°
orbit number at epoch: 97409

The dashed part of the orbit path shows where the satellite is in the earth's shadow,  

DLR